Terug naar catalogus

CZ-6A DEB

ActiefPO
NORAD 60814·DEBRIS·🇨🇳 China

Gelanceerd Aug 6, 2024 vanaf Taiyuan Satellite Launch Center

Loading…

Volgende Passages (komende 24 uur)

TLE

VersSource: Space-Track

Epoch: Sep 14, 2026, 07:01 UTC

1 60814U 24140GR  26257.29303068  .00000564  00000-0  29811-3 0  9992
2 60814  89.0578 271.5866 0086834 296.1169  63.1100 14.10731564107489

Volg CZ-6A DEB in realtime met AllMySat

Download on the App Store